This is the latest recevied weather packets stored in our database for station/object K9ZOG. If no packets are shown the sender has not sent any weather packets the latest 10 day(s).
| Time | Temp. | Humidity | Pressure | Rain* | Wind** | Luminosity | Snow |
|---|---|---|---|---|---|---|---|
| 1777300754 | 16.11° C | 67% | 1013.9 hPa | 0 mm | - | 192 W/m² | - |
| 1777300452 | 16.11° C | 66% | 1013.7 hPa | 0 mm | - | 215 W/m² | - |
| 1777300153 | 16.11° C | 67% | 1013.6 hPa | 0 mm | - | 268 W/m² | - |
| 1777299853 | 16.11° C | 67% | 1013.5 hPa | 0 mm | - | 311 W/m² | - |
| 1777299553 | 15.56° C | 66% | 1013.4 hPa | 0 mm | - | 333 W/m² | - |
| 1777299254 | 15.56° C | 68% | 1013.5 hPa | 0 mm | - | 305 W/m² | - |
| 1777298953 | 15° C | 68% | 1013.5 hPa | 0 mm | - | 269 W/m² | - |
| 1777298653 | 15° C | 69% | 1013.6 hPa | 0 mm | - | 257 W/m² | - |
| 1777298355 | 15° C | 69% | 1013.9 hPa | 0 mm | - | 249 W/m² | - |
| 1777298053 | 14.44° C | 70% | 1014.1 hPa | 0 mm | - | 252 W/m² | - |
| 1777297753 | 14.44° C | 71% | 1014.1 hPa | 0 mm | - | 239 W/m² | - |
| 1777297453 | 14.44° C | 71% | 1014.2 hPa | 0 mm | - | 221 W/m² | - |
| 1777297153 | 14.44° C | 72% | 1014.2 hPa | 0 mm | - | 177 W/m² | - |
| 1777296854 | 13.89° C | 72% | 1014.2 hPa | 0 mm | - | 165 W/m² | - |
| 1777296553 | 13.89° C | 72% | 1014.4 hPa | 0 mm | - | 166 W/m² | - |
| 1777296253 | 13.89° C | 73% | 1014.6 hPa | 0 mm | - | 157 W/m² | - |
| 1777295954 | 13.33° C | 73% | 1014.7 hPa | 0 mm | - | 147 W/m² | - |
| 1777295653 | 13.33° C | 74% | 1014.7 hPa | 0 mm | - | 140 W/m² | - |
| 1777295354 | 12.78° C | 76% | 1014.7 hPa | 0 mm | - | 131 W/m² | - |
| 1777295054 | 12.78° C | 77% | 1014.9 hPa | 0 mm | - | 118 W/m² | - |
| 1777294754 | 12.22° C | 78% | 1015 hPa | 0 mm | - | 102 W/m² | - |
| 1777294453 | 12.22° C | 79% | 1015.1 hPa | 0 mm | - | 100 W/m² | - |
| 1777294154 | 11.67° C | 79% | 1015 hPa | 0 mm | - | 103 W/m² | - |
| 1777293853 | 11.67° C | 79% | 1015 hPa | 0 mm | - | 109 W/m² | - |
| 1777293553 | 11.67° C | 80% | 1015.1 hPa | 0 mm | - | 111 W/m² | - |
* Rain latest hour (hover to see other rain measurements)
** Current wind speed in m/s (hover to see current wind gust speed)